Other Public Products
Issued by NWS Grand Forks, ND

Home | Current Version | Previous Version | Graphics & Text | Print | Product List | Glossary On
Versions: 1 2 3 4 5 6 7 8 9 10 11 12 13 14 15 16 17 18 19 20 21 22 23 24 25 26 27 28 29 30 31 32 33 34 35 36 37 38 39 40 41 42 43 44 45 46 47 48 49 50
000
FPUS83 KFGF 140331
OPUFGF
PRAIRIE TO PINES WEATHER ROUNDUP
NATIONAL WEATHER SERVICE EASTERN NORTH DAKOTA/GRAND FORKS ND
900 PM CST SAT FEB 13 2016

 **SATELLITE DATA USED TO AUGMENT SKY COVER AT AUTOMATED STATIONS**
 *****  WEATHER ACROSS EASTERN NORTH DAKOTA  *****

CITY           SKY/WX    TMP DP  RH WIND       PRES   REMARKS
GRAND FORKS    FLURRIES  13   2  61 SE21      30.12F WCI  -5
GRAND FORKS AF CLOUDY    13   2  61 S23G31    30.09F WCI  -6
GRAND CITY NWS NOT AVBL
BUXTON           N/A     13   4  66 S20         N/A  WCI  -5
DEVILS LAKE    LGT SNOW   9   5  85 SE20G28   29.96F FOG     WCI -11
FARGO          CLOUDY    15   0  51 SE20G30   30.13F WCI  -2
WAHPETON ARPT  CLOUDY    12   1  62 SE20G26   30.16F WCI  -6
$$

 *****  WEATHER ACROSS CENTRAL AND WESTERN NORTH DAKOTA  *****

CITY           SKY/WX    TMP DP  RH WIND       PRES   REMARKS
JAMESTOWN      SNOW      10   6  84 SE15      29.99F VSB 1/4 WCI  -7
BISMARCK       FLURRIES  18  12  77 SE14      29.89F WCI   4
MINOT          LGT SNOW  17  11  77 SE10      29.82F WCI   5
MINOT AFB      LGT SNOW  16  14  93 SE8       29.82F FOG     WCI   5
GARRISON         N/A     16  13  88 SE12      29.81F WCI   3
WILLISTON      CLOUDY    24  20  84 CALM      29.79R
DICKINSON      CLOUDY    35  31  85 W16G25    29.74F
HETTINGER      CLOUDY    26  24  92 S5        29.81F WCI  20
$$

 *****  OTHER OBSERVATIONS NORTHEAST NORTH DAKOTA  *****

CITY           SKY/WX    TMP DP  RH WIND       PRES   REMARKS
WALHALLA       FAIR      10   3  72 SE14G23   30.05S WCI  -5
LANGDON        CLOUDY    10   5  79 S28G36    29.97F HAZE    WCI -11
CAVALIER       CLOUDY    10   1  67 S18G25    30.07F WCI  -8
GRAFTON        MOCLDY    12   3  67 SE23      30.12F WCI  -7
CANDO          CLOUDY     9   7  92 S23G31    29.97F FOG     WCI -12
FORT TOTTEN      N/A      8   3  80 S16       29.95S WCI -10
ROLLA          CLOUDY     7   5  92 S18G25    29.90F FOG     WCI -12
RUGBY          LGT SNOW  10   7  85 SE21G29   29.90F WCI  -9
 ***** THE ABOVE OBSERVATIONS ARE NON NWS ARE NOT QUALITY
        CONTROLLED AND MAY MIS-REPORT RAIN FOR SNOW...
$$

 *****  OTHER OBSERVATIONS SOUTHEAST NORTH DAKOTA *****

CITY           SKY/WX    TMP DP  RH WIND       PRES   REMARKS
COOPERSTOWN    NOT AVBL
VALLEY CITY    CLOUDY     9   5  85 S14G23    30.08S WCI  -8
OAKES          CLOUDY    14   7  73 S16       30.06F HAZE    WCI  -2
GWINNER        CLOUDY    14   7  73 SE20      30.08F WCI  -3
SHEYENNE NWR     N/A     11   2  66 S15       29.95S WCI  -5
BUFFALO          N/A     10   1  66 SE17        N/A  WCI  -7
WYNDMERE         N/A     10   3  72 SE24        N/A  WCI -10
 ***** THE ABOVE OBSERVATIONS ARE NON NWS ARE NOT QUALITY
       CONTROLLED AND MAY MIS-REPORT RAIN FOR SNOW...
$$

  *****  WEATHER ACROSS NORTHERN MINNESOTA  *****

CITY           SKY/WX    TMP DP  RH WIND       PRES   REMARKS
FLAG ISLAND    CLOUDY     0 -15  50 SE9       30.19F WCI -16
WARROAD        PTCLDY     3  -9  55 SE9       30.18S WCI -11
ROSEAU         CLOUDY     9  -6  52 SE14      30.16F WCI  -8
HALLOCK        FLURRIES  12   1  62 S21       30.10F WCI  -6
THF RVR FALLS  CLOUDY    10  -6  48 SE15      30.14F WCI  -6
HALSTAD          N/A     13   1  60 S17         N/A  WCI  -4
FOSSTON        CLOUDY     9  -8  47 SE12      30.14F WCI  -6
BAUDETTE       CLOUDY     0 -16  46 SE9       30.19F WCI -15
WASKISH        CLOUDY     1 -11  55 SE6       30.20S WCI -10
CROOKSTON      CLOUDY    12   0  57 S20       30.15S WCI  -6
$$
  *****  WEATHER ACROSS CENTRAL AND WEST MINNESOTA  *****

CITY           SKY/WX    TMP DP  RH WIND       PRES   REMARKS
BEMIDJI        CLOUDY     3 -10  55 SE10      30.18F WCI -13
PARK RAPIDS    CLOUDY     7  -7  52 SE14      30.19F WCI -10
WADENA         CLOUDY     7  -4  61 SE12      30.19F WCI  -9
DETROIT LAKES  CLOUDY    10   0  61 SE17      30.14F WCI  -7
MOORHEAD       CLOUDY    12   0  57 S24G35    30.13F WCI  -8
FERGUS FALLS   CLOUDY    10   0  61 SE15      30.20F WCI  -6
ELBOW LAKE     CLOUDY    10   0  64 E17G24    30.17F WCI  -8
MORRIS MN      CLOUDY    10   1  67 SE22G28   30.16F WCI  -9
STAPLES        CLOUDY     7  -8  51 SE8       30.21F WCI  -6
WHEATON        CLOUDY    10   5  79 SE24      30.17S WCI -10
$$
  *****  WEATHER ELSEWHERE ACROSS MINNESOTA  *****

CITY           SKY/WX    TMP DP  RH WIND       PRES   REMARKS
DULUTH         CLOUDY     1 -14  49 S5        30.31S WCI  -9
INTRNTL FALLS  CLOUDY   -11 -17  75 SE8       30.26F WCI -28
ELY            CLOUDY   -11 -17  77 CALM      30.29F
CLOQUET        CLOUDY     1 -17  42 CALM      30.30F
BRAINERD       CLOUDY     2 -11  54 SE5       30.27F WCI  -8
HIBBING        CLOUDY    -9 -16  71 SE5       30.29S WCI -20
ALEXANDRIA     CLOUDY     9  -2  61 SE15      30.20F WCI  -8
SAINT CLOUD    CLOUDY     8  -6  52 SE13      30.30F WCI  -8
MINNEAPOLIS    MOCLDY     6  -7  54 SE7       30.37F WCI  -6
$$

  *****  WEATHER ACROSS SOUTH DAKOTA  *****

CITY           SKY/WX    TMP DP  RH WIND       PRES   REMARKS
SIOUX FALLS    LGT SNOW  12   8  84 SE21G29   30.12F FOG     WCI  -7
BROOKINGS      LGT SNOW   9   5  84 SE24G32   30.07F FOG     WCI -12
WATERTOWN      LGT SNOW  11   5  77 SE18G29   30.03S VSB 1   WCI  -7
HURON          CLOUDY    14   8  77 SE24G37   30.01F WCI  -5
SISSETON         N/A     10   3  73 S21       30.12R WCI  -9
ABERDEEN       LGT SNOW  16  10  77 S17       30.06R WCI   0
MITCHELL       MIX PCPN  14   8  77 SE28G36   30.04F WCI  -6
PIERRE         LGT SNOW  25  24  96 E14       29.84F VSB 1   WCI  13
MOBRIDGE       SNOW      20  16  84 SE14      29.85F VSB 1/2 WCI   7
RAPID CITY     CLOUDY    38  33  82 NW21      29.83F
$$

  *****  SOME WEATHER IN NEARBY STATES *****

CITY           SKY/WX    TMP DP  RH WIND       PRES   REMARKS
GLASGOW MT     PTCLDY    35  30  82 NW17      29.87R WCI  25
GREAT FALLS MT CLOUDY    38  22  52 SW14      29.99F
CHEYENNE WY    CLEAR     42  20  41 NW23G32   30.02R
SCOTTSBLUFF NE CLOUDY    37  30  75 NW17G26   30.00R
OMAHA NE       CLOUDY    19   4  51 SE20      30.25F WCI   3
DES MOINES IA  LGT SNOW  14   8  77 SE9       30.34F WCI   2
DAVENPORT IA   CLOUDY    16  -3  43 E10       30.44F WCI   4
CHICAGO IL     MOCLDY    12  -4  48 CALM      30.48S
EAU CLAIRE WI  CLOUDY    -4 -12  68 NE3       30.40F
LA CROSSE WI   CLOUDY     4  -9  55 E5        30.44F WCI  -5
$$

  *****  SOME NATIONAL WEATHER *****

CITY           SKY/WX    TMP DP  RH WIND       PRES   REMARKS
LA GUARDIA NY  PTCLDY     8  -9  45 NW21G31   30.32S WCI -12
RALEIGH NC     CLEAR     24  -1  33 N6        30.44R WCI  17
ATLANTA GA     CLEAR     33   5  30 N9        30.37F
NEW ORLEANS LA CLEAR     51  38  60 SE3       30.35S
OKLAHOMA CITY  PTCLDY    49  35  58 SE17      30.04F
ALBUQUERQUE NM CLEAR     57  14  18 NW7       30.11S
SALT LAKE CITY FOG       29  29 100 NW3       30.32S VSB 1/8
LOS ANGELES CA MOCLDY    55  54  94 SW5       30.05S FOG
BOISE ID       CLOUDY    44  28  53 SE7       30.26S
SEATTLE WA     CLOUDY    45  41  86 S7        30.09S
$$

*** WEATHER ACROSS MANITOBA...SASKATCHEWAN AND ONTARIO ***
                ***ONTARIO***

CITY           SKY/WX    TMP DP  RH WIND       PRES   REMARKS
GERALDTON      CLEAR    -20 -26  76 VRB2      30.33F
THUNDER BAY    CLEAR    -15 -20  76 W5        30.40F WCI -27
SIOUX LOOKOUT  CLEAR    -15 -18  84 SE5       30.28F WCI -27
TORONTO        CLEAR     -8 -20  54 N12G18    30.45R WCI -27
BIG TROUT LK   CLEAR     -9 -15  77 S7        30.25F WCI -24
PICKLE LAKE    NOT AVBL
DRYDEN         CLEAR     -4 -11  71 SE8       30.25F WCI -19
KENORA         PTCLDY    -2 -13  60 SE12      30.20F WCI -20
$$
                *** MANITOBA***

CITY           SKY/WX    TMP DP  RH WIND       PRES   REMARKS
BRANDON        LGT SNOW   9   3  78 SE12G20   29.93F DRFTSNOWWCI  -6
DAUPHIN        CLOUDY     7   1  78 SE10      29.95S WCI  -8
ISLAND LAKE    PTCLDY    -4 -11  71 SE9       30.14  WCI -20
PILOT MOUND      N/A      9   5  85 S23         N/A  WCI -12
THE PAS        CLOUDY     9  -2  61 S13       29.86F WCI  -7
THOMPSON       PTCLDY     0  -8  71 S6        29.94F WCI -12
WINNIPEG       CLOUDY     7  -8  51 SE23      30.09F WCI -14
LYNN LAKE      FLURRIES   9   0  66 S12G17    29.71F WCI  -6
CHURCHILL      PTCLDY     1  -8  66 S15G23    29.94F WCI -18
GILLAM         CLOUDY     1  -8  66 S10G22    30.04F WCI -14
$$
                ***SASKATCHEWAN***

CITY           SKY/WX    TMP DP  RH WIND       PRES   REMARKS
ESTEVAN        LGT SNOW  16  14  93 SE9       29.78S WCI   4
KINDERSLEY     PTCLDY    18  16  93 SW5       29.79  WCI  11
LLOYDMINSTER   PTCLDY    25  23  93 W13       29.72S WCI  13
PRINCE ALBERT  FLURRIES  14  10  85 SW6       29.77F WCI   5
REGINA         FLURRIES  19  18  93 S3        29.78S
YORKTON        CLOUDY    10   5  79 SE10G17   29.81F WCC1F1C2F2C3F3C4F4C5F5C6F6C7F7C8F8C9F9CaFaCbFbCcFcCdFdCe!


USA.gov is the U.S. government's official web portal to all federal, state and local government web resources and services.